O3B MPOWER F4 (56367 NORAD) Tracking and Keplerian Element Data

This shows tracking and keplerian element data for the satellite.

Feedback or suggestion? Click here.




ElementValue
Catalog56367
NameO3B MPOWER F4
Epoch Orbit730
Epoch Day238.7365624
Epoch Year2023
RAAN351.3661
Inclination0.0398
Eccentricity0.0006004
Argument of Perigee179.1658
Mean Anonmoly189.4801
Mean Motion5.00115621
Decay Rate-1.7E-07
L11 56367U 23059A 23238.73656240 -.00000017 00000+0 00000+0 0 9994
L22 56367 0.0398 351.3661 0006004 179.1658 189.4801 5.00115621 7303



Live tracking and technical data element details for O3B MPOWER F4 (NORAD 56367). O3B MPOWER F4 can be tracked NOW for your location showing map with azimuth and elevation plus other details from your city location.







IsCatalogInMostPopularTable: catalog: 56367, numindb: 10
Update: records affected: 1



GetName: 56367 O3B MPOWER F4

Hit Count: updated at: Thu, 28 Sep 2023 04:23:02 GMT